Weather History for KCOE - November, 2014

Change the Weather History Date:

Thursday, November 6, 2014

  Actual Average Record
Temperature  
Mean Temperature 52 °F -  
Max Temperature 57 °F 44 °F 64 °F (2006)
Min Temperature 46 °F 29 °F 8 °F (2003)
Degree Days  
Heating Degree Days 14    
Growing Degree Days 2 (Base 50)    
Moisture  
Dew Point 45 °F    
Average Humidity 80    
Maximum Humidity 93    
Minimum Humidity 66    
Precipitation  
Precipitation 0.09 in - - ()
Sea Level Pressure  
Sea Level Pressure 30.01 in    
Wind  
Wind Speed 10 mph (South)    
Max Wind Speed 20 mph    
Max Gust Speed 28 mph    
Visibility 10 miles    
Events      
Averages and records for this station are not official NWS values.
T = Trace of Precipitation, MM = Missing Value Source: NWS Daily Summary

Daily Weather History Graph

Daily Weather History Graph

Search for Another Location

Airport or City:

Trip Planner

Search our weather history database for the weather conditions in past years. The results will help you decide how hot, cold, wet, or windy it might be!

Date:

Astronomy

Nov. 06, 2014 Rise Set
Actual Time 6:39 AM PST 4:21 PM PST
Civil Twilight 6:06 AM PST 4:54 PM PST
Nautical Twilight 5:29 AM PST 5:31 PM PST
Astronomical Twilight 4:53 AM PST 6:07 PM PST
Moon 4:33 PM PST (11/6) 6:13 AM PST (11/6)
Length of Visible Light 10h 47m
Length of Day
9h 42m
Full, 100% of the Moon is Illuminated
Nov 6
Full
Nov 6
Full
Nov 14
Last Quarter
Nov 22
New
Nov 29
First Quarter

Hourly Weather History & Observations

Time (PST) Temp. Windchill Dew Point Humidity Pressure Visibility Wind Dir Wind Speed Gust Speed Precip Events Conditions
12:15 AM 48.2 °F - 42.8 °F 82% 30.16 in 10.0 mi NNE 9.2 mph - N/A   Overcast
12:35 AM 48.2 °F - 42.8 °F 82% 30.15 in 10.0 mi NNE 10.4 mph - N/A   Mostly Cloudy
12:55 AM 48.2 °F - 44.6 °F 87% 30.14 in 10.0 mi NE 9.2 mph - N/A   Mostly Cloudy
1:15 AM 48.2 °F - 42.8 °F 82% 30.14 in 10.0 mi NNE 8.1 mph - N/A   Overcast
1:35 AM 48.2 °F - 44.6 °F 87% 30.13 in 10.0 mi NE 8.1 mph - N/A   Overcast
1:55 AM 48.2 °F - 44.6 °F 87% 30.12 in 10.0 mi NE 5.8 mph - N/A   Overcast
2:15 AM 48.2 °F - 44.6 °F 87% 30.11 in 10.0 mi NE 5.8 mph - N/A   Overcast
2:35 AM 48.2 °F - 44.6 °F 87% 30.10 in 10.0 mi NE 10.4 mph - N/A   Overcast
2:55 AM 48.2 °F - 42.8 °F 82% 30.10 in 10.0 mi NNE 9.2 mph - N/A   Overcast
3:15 AM 48.2 °F - 44.6 °F 87% 30.10 in 10.0 mi NE 8.1 mph - N/A   Overcast
3:35 AM 48.2 °F - 44.6 °F 87% 30.09 in 10.0 mi ENE 9.2 mph - N/A   Overcast
3:55 AM 48.2 °F - 42.8 °F 82% 30.08 in 10.0 mi NE 10.4 mph - N/A   Overcast
4:15 AM 48.2 °F - 42.8 °F 82% 30.07 in 10.0 mi NNE 11.5 mph - N/A   Overcast
4:35 AM 46.4 °F 41.9 °F 42.8 °F 87% 30.06 in 10.0 mi NNE 9.2 mph - N/A   Mostly Cloudy
4:55 AM 46.4 °F 42.4 °F 42.8 °F 87% 30.06 in 10.0 mi NE 8.1 mph - N/A   Mostly Cloudy
5:15 AM 46.4 °F 41.9 °F 44.6 °F 93% 30.05 in 10.0 mi NNE 9.2 mph - N/A   Mostly Cloudy
5:35 AM 46.4 °F 42.4 °F 44.6 °F 93% 30.04 in 10.0 mi NNE 8.1 mph - N/A   Scattered Clouds
5:55 AM 46.4 °F 42.4 °F 44.6 °F 93% 30.04 in 10.0 mi NE 8.1 mph - N/A   Clear
6:15 AM 46.4 °F 42.9 °F 42.8 °F 87% 30.03 in 10.0 mi NE 6.9 mph - N/A   Clear
6:55 AM 46.4 °F 41.1 °F 42.8 °F 87% 30.02 in 10.0 mi NNE 11.5 mph - N/A   Scattered Clouds
7:15 AM 46.4 °F 41.5 °F 44.6 °F 93% 30.01 in 10.0 mi NNE 10.4 mph - N/A   Mostly Cloudy
7:35 AM 46.4 °F 41.9 °F 42.8 °F 87% 30.00 in 10.0 mi NNE 9.2 mph - N/A   Mostly Cloudy
7:55 AM 46.4 °F 42.9 °F 44.6 °F 93% 29.98 in 10.0 mi NNE 6.9 mph - N/A   Scattered Clouds
8:15 AM 46.4 °F 42.4 °F 44.6 °F 93% 29.98 in 10.0 mi North 8.1 mph - N/A   Mostly Cloudy
8:35 AM 48.2 °F - 44.6 °F 87% 29.99 in 10.0 mi North 5.8 mph - N/A   Mostly Cloudy
8:55 AM 48.2 °F - 44.6 °F 87% 29.99 in 9.0 mi NE 8.1 mph - N/A   Overcast
9:15 AM 48.2 °F - 44.6 °F 87% 29.97 in 10.0 mi ENE 6.9 mph - N/A   Mostly Cloudy
9:35 AM 48.2 °F - 46.4 °F 93% 29.99 in 10.0 mi Calm Calm - N/A   Mostly Cloudy
9:55 AM 48.2 °F - 46.4 °F 93% 29.99 in 6.0 mi ENE 6.9 mph - 0.02 in   Overcast
10:15 AM 48.2 °F - 46.4 °F 93% 29.97 in 8.0 mi ENE 6.9 mph - N/A   Overcast
10:35 AM 50.0 °F - 46.4 °F 87% 29.97 in 9.0 mi NE 3.5 mph - N/A   Overcast
10:55 AM 51.8 °F - 48.2 °F 88% 29.95 in 10.0 mi ENE 4.6 mph - N/A   Overcast
11:15 AM 53.6 °F - 50.0 °F 88% 29.94 in 10.0 mi Calm Calm - N/A   Mostly Cloudy
11:35 AM 55.4 °F - 48.2 °F 77% 29.92 in 10.0 mi South 5.8 mph - N/A   Mostly Cloudy
11:55 AM 57.2 °F - 50.0 °F 77% 29.92 in 10.0 mi South 9.2 mph - N/A   Mostly Cloudy
12:15 PM 57.2 °F - 48.2 °F 72% 29.92 in 10.0 mi South 10.4 mph - 0.01 in   Overcast
12:35 PM 55.4 °F - 48.2 °F 77% 29.93 in 10.0 mi South 9.2 mph - 0.01 in   Overcast
12:55 PM 55.4 °F - 50.0 °F 82% 29.92 in 10.0 mi South 10.4 mph - 0.02 in   Overcast
1:15 PM 55.4 °F - 48.2 °F 77% 29.92 in 10.0 mi South 10.4 mph - N/A   Overcast
1:35 PM 55.4 °F - 48.2 °F 77% 29.91 in 10.0 mi South 10.4 mph - N/A   Mostly Cloudy
1:55 PM 57.2 °F - 50.0 °F 77% 29.90 in 10.0 mi South 10.4 mph - N/A   Mostly Cloudy
2:15 PM 55.4 °F - 50.0 °F 82% 29.91 in 10.0 mi South 9.2 mph - N/A   Overcast
2:35 PM 55.4 °F - 50.0 °F 82% 29.91 in 10.0 mi South 6.9 mph - N/A   Overcast
2:55 PM 57.2 °F - 50.0 °F 77% 29.92 in 10.0 mi WSW 9.2 mph - N/A   Overcast
3:15 PM 57.2 °F - 48.2 °F 72% 29.92 in 10.0 mi SW 15.0 mph 19.6 mph N/A   Overcast
3:35 PM 57.2 °F - 46.4 °F 67% 29.91 in 10.0 mi SW 16.1 mph 27.6 mph N/A   Overcast
3:55 PM 57.2 °F - 46.4 °F 67% 29.93 in 10.0 mi SW 17.3 mph 27.6 mph N/A   Mostly Cloudy
4:15 PM 57.2 °F - 46.4 °F 67% 29.93 in 10.0 mi SW 15.0 mph - N/A   Partly Cloudy
4:35 PM 57.2 °F - 46.4 °F 67% 29.94 in 10.0 mi SW 11.5 mph - N/A   Clear
4:55 PM 55.4 °F - 46.4 °F 72% 29.95 in 10.0 mi SW 8.1 mph - N/A   Partly Cloudy
5:55 PM 55.4 °F - 46.4 °F 72% 29.97 in 10.0 mi WSW 15.0 mph 24.2 mph N/A   Overcast
6:15 PM 53.6 °F - 46.4 °F 77% 29.98 in 10.0 mi WSW 9.2 mph - N/A   Overcast
6:35 PM 53.6 °F - 46.4 °F 77% 29.98 in 10.0 mi SW 13.8 mph 20.7 mph 0.01 in   Overcast
6:55 PM 53.6 °F - 46.4 °F 77% 29.99 in 10.0 mi WSW 11.5 mph - 0.02 in   Overcast
7:15 PM 53.6 °F - 46.4 °F 77% 29.99 in 10.0 mi SW 12.7 mph 16.1 mph N/A   Overcast
7:35 PM 51.8 °F - 46.4 °F 82% 30.00 in 10.0 mi WSW 11.5 mph - 0.02 in   Overcast
7:55 PM 51.8 °F - 44.6 °F 76% 30.00 in 10.0 mi SW 13.8 mph 21.9 mph 0.03 in   Overcast
8:15 PM 53.6 °F - 44.6 °F 72% 30.01 in 10.0 mi SW 16.1 mph - N/A   Overcast
8:35 PM 53.6 °F - 44.6 °F 72% 30.01 in 10.0 mi SW 13.8 mph 25.3 mph N/A   Mostly Cloudy
8:55 PM 53.6 °F - 44.6 °F 72% 30.03 in 10.0 mi WSW 11.5 mph - N/A   Mostly Cloudy
9:15 PM 53.6 °F - 44.6 °F 72% 30.02 in 10.0 mi SW 17.3 mph 21.9 mph N/A   Mostly Cloudy
9:35 PM 53.6 °F - 44.6 °F 72% 30.03 in 10.0 mi WSW 13.8 mph 24.2 mph N/A   Partly Cloudy
9:55 PM 51.8 °F - 44.6 °F 76% 30.04 in 10.0 mi WSW 19.6 mph 25.3 mph N/A   Partly Cloudy
10:15 PM 51.8 °F - 42.8 °F 71% 30.05 in 10.0 mi SW 18.4 mph 25.3 mph N/A   Clear
10:35 PM 51.8 °F - 42.8 °F 71% 30.07 in 10.0 mi SW 15.0 mph 24.2 mph N/A   Partly Cloudy
10:55 PM 51.8 °F - 41.0 °F 67% 30.08 in 10.0 mi SW 15.0 mph 21.9 mph N/A   Partly Cloudy
11:15 PM 50.0 °F - 39.2 °F 66% 30.09 in 10.0 mi SW 17.3 mph 25.3 mph N/A   Clear
11:35 PM 48.2 °F - 37.4 °F 66% 30.11 in 10.0 mi SW 15.0 mph 20.7 mph N/A   Clear
11:55 PM 48.2 °F - 39.2 °F 71% 30.13 in 10.0 mi SSW 12.7 mph - N/A   Clear